Location name: Ruliba(Nyabarongo) | Identifier : 270001 | Type : Hydrology Station

On the left bank downstream the Ruliba bridge the station consists of staff gauges and a radar. The left bank is unstable but accessible while the right bank is stable but hardly accessible.

  • Parameter : Stage
  • Unit : m
  • Start time : 1961-01-01T12:00:00.0000000+02:00
  • End time : 2013-12-16T00:00:00.0000000+02:00
  • Parameter : Discharge
  • Unit : m^3/s
  • Start time : 1961-01-01T00:00:00.0000000+02:00
  • End time : 2016-12-31T00:00:00.0000000+02:00
  • Parameter : Stage
  • Unit : m
  • Start time : 2016-03-01T08:00:00.0000000+02:00
  • End time : 2016-12-31T17:00:00.0000000+02:00
  • Parameter : Stage
  • Unit : m
  • Start time : 2018-02-27T15:30:00.0000000+02:00
  • End time : 2022-09-24T02:30:00.0000000+02:00
Date Parameter Unit Value
2012-02-23T00:00:00.0000000+02:00 Water Level m 2.9
2012-11-12T00:00:00.0000000+02:00 Water Level m 3.26
2014-02-25T00:00:00.0000000+02:00 Water Level m 2.5
2017-04-24T00:00:00.0000000+02:00 Water Level m 2.51
2017-09-07T00:00:00.0000000+02:00 Water Level m 1.53
2017-09-29T00:00:00.0000000+02:00 Water Level m 1.28
2017-11-24T00:00:00.0000000+02:00 Water Level m 1.85
2018-05-03T00:00:00.0000000+02:00 Water Level m 4.75
1955-04-03T00:00:00.0000000+02:00 Discharge m^3/s 56.09999847
1955-04-03T00:00:00.0000000+02:00 Stage m 0.800000012
1955-08-22T00:00:00.0000000+02:00 Discharge m^3/s 27.5
1955-08-22T00:00:00.0000000+02:00 Stage m 0.439999998
1956-03-08T00:00:00.0000000+02:00 Discharge m^3/s 57.90000153
1956-03-08T00:00:00.0000000+02:00 Stage m 1.200000048
1956-03-08T00:00:00.0000000+02:00 Discharge m^3/s 60.40000153
1956-03-08T00:00:00.0000000+02:00 Stage m 1.230000019
1956-07-26T00:00:00.0000000+02:00 Discharge m^3/s 34.90000153
1956-07-26T00:00:00.0000000+02:00 Stage m 0.439999998
1957-02-28T00:00:00.0000000+02:00 Discharge m^3/s 78.59999847
1957-02-28T00:00:00.0000000+02:00 Stage m 1.879999995
1957-08-26T00:00:00.0000000+02:00 Discharge m^3/s 44.70000076
1957-08-26T00:00:00.0000000+02:00 Stage m 0.800000012
1958-05-29T00:00:00.0000000+02:00 Discharge m^3/s 72.30000305
1958-05-29T00:00:00.0000000+02:00 Stage m 1.570000052
1958-07-11T00:00:00.0000000+02:00 Discharge m^3/s 45.5
1958-07-11T00:00:00.0000000+02:00 Stage m 0.720000029
1958-08-25T00:00:00.0000000+02:00 Discharge m^3/s 117
1958-08-25T00:00:00.0000000+02:00 Stage m 2.650000095
1958-09-13T00:00:00.0000000+02:00 Discharge m^3/s 37.5
1958-09-13T00:00:00.0000000+02:00 Stage m 0.540000021
1959-02-10T00:00:00.0000000+02:00 Discharge m^3/s 62.70000076
1959-02-10T00:00:00.0000000+02:00 Stage m 1.389999986
1959-05-26T00:00:00.0000000+02:00 Discharge m^3/s 118
1959-05-26T00:00:00.0000000+02:00 Stage m 3.700000048
1959-08-28T00:00:00.0000000+02:00 Discharge m^3/s 33.09999847
1959-08-28T00:00:00.0000000+02:00 Stage m 0.439999998
1959-10-21T00:00:00.0000000+02:00 Discharge m^3/s 41.5
1959-10-21T00:00:00.0000000+02:00 Stage m 0.720000029
1960-02-05T00:00:00.0000000+02:00 Discharge m^3/s 58.70000076
1960-02-05T00:00:00.0000000+02:00 Stage m 1.320000052
1960-04-25T00:00:00.0000000+02:00 Discharge m^3/s 166
1960-04-25T00:00:00.0000000+02:00 Stage m 3.680000067
1960-09-08T00:00:00.0000000+02:00 Discharge m^3/s 45
1960-09-08T00:00:00.0000000+02:00 Stage m 0.970000029
1961-03-14T00:00:00.0000000+02:00 Discharge m^3/s 43.5
1961-03-14T00:00:00.0000000+02:00 Stage m 0.829999983
1963-03-14T00:00:00.0000000+02:00 Discharge m^3/s 89.19999695
1963-03-14T00:00:00.0000000+02:00 Stage m 2.269999981
1963-05-07T00:00:00.0000000+02:00 Discharge m^3/s 338
1963-05-07T00:00:00.0000000+02:00 Stage m 5.400000095
1964-06-05T00:00:00.0000000+02:00 Discharge m^3/s 266
1964-06-05T00:00:00.0000000+02:00 Stage m 4.71999979
1964-09-28T00:00:00.0000000+02:00 Discharge m^3/s 48.59999847
1964-09-28T00:00:00.0000000+02:00 Stage m 1.24000001
1966-04-25T00:00:00.0000000+02:00 Discharge m^3/s 93.25
1966-04-25T00:00:00.0000000+02:00 Stage m 3.339999914
1966-10-28T00:00:00.0000000+02:00 Discharge m^3/s 105.9000015
1966-10-28T00:00:00.0000000+02:00 Stage m 2.119999886
1972-06-23T00:00:00.0000000+02:00 Discharge m^3/s 82.40000153
1972-06-23T00:00:00.0000000+02:00 Stage m 1.639999986
1972-11-18T00:00:00.0000000+02:00 Discharge m^3/s 95
1972-11-18T00:00:00.0000000+02:00 Stage m 1.99000001
1973-01-09T00:00:00.0000000+02:00 Discharge m^3/s 78
1973-01-09T00:00:00.0000000+02:00 Stage m 1.580000043
1973-04-10T00:00:00.0000000+02:00 Discharge m^3/s 118
1973-04-10T00:00:00.0000000+02:00 Stage m 2.25999999
1973-04-19T00:00:00.0000000+02:00 Discharge m^3/s 186
1973-04-19T00:00:00.0000000+02:00 Stage m 3.549999952
1973-05-08T00:00:00.0000000+02:00 Discharge m^3/s 138
1973-05-08T00:00:00.0000000+02:00 Stage m 2.809999943
1973-05-10T00:00:00.0000000+02:00 Discharge m^3/s 189
1973-05-10T00:00:00.0000000+02:00 Stage m 3.690000057
1973-05-14T00:00:00.0000000+02:00 Discharge m^3/s 174
1973-05-14T00:00:00.0000000+02:00 Stage m 3.460000038
1973-05-24T00:00:00.0000000+02:00 Discharge m^3/s 173.6000061
1973-05-24T00:00:00.0000000+02:00 Stage m 3.529999971
1974-04-22T00:00:00.0000000+02:00 Discharge m^3/s 153
1974-04-22T00:00:00.0000000+02:00 Stage m 3.25999999
1974-05-29T00:00:00.0000000+02:00 Discharge m^3/s 158
1974-05-29T00:00:00.0000000+02:00 Stage m 3.359999895
1975-04-24T00:00:00.0000000+02:00 Discharge m^3/s 158.3999939
1975-04-24T00:00:00.0000000+02:00 Stage m 3.309999943
1975-08-13T00:00:00.0000000+02:00 Discharge m^3/s 46.79999924
1975-08-13T00:00:00.0000000+02:00 Stage m 0.889999986
1975-09-19T00:00:00.0000000+02:00 Discharge m^3/s 57.70000076
1975-09-19T00:00:00.0000000+02:00 Stage m 1.139999986
1975-10-25T00:00:00.0000000+02:00 Discharge m^3/s 120.6999969
1975-10-25T00:00:00.0000000+02:00 Stage m 2.650000095
1975-11-18T00:00:00.0000000+02:00 Discharge m^3/s 88.30000305
1975-11-18T00:00:00.0000000+02:00 Stage m 2.079999924
1976-01-15T00:00:00.0000000+02:00 Discharge m^3/s 74.5
1976-01-15T00:00:00.0000000+02:00 Stage m 1.50999999
1976-03-09T00:00:00.0000000+02:00 Discharge m^3/s 78
1976-03-09T00:00:00.0000000+02:00 Stage m 1.629999995
1976-04-23T00:00:00.0000000+02:00 Discharge m^3/s 128.6000061
1976-04-23T00:00:00.0000000+02:00 Stage m 2.650000095
1976-05-24T00:00:00.0000000+02:00 Discharge m^3/s 174.6999969
1976-05-24T00:00:00.0000000+02:00 Stage m 3.210000038
1976-06-25T00:00:00.0000000+02:00 Discharge m^3/s 64
1976-06-25T00:00:00.0000000+02:00 Stage m 1.370000005
1976-08-11T00:00:00.0000000+02:00 Discharge m^3/s 47
1976-08-11T00:00:00.0000000+02:00 Stage m 0.970000029
1976-11-12T00:00:00.0000000+02:00 Discharge m^3/s 62.09999847
1976-11-12T00:00:00.0000000+02:00 Stage m 1.360000014
1977-02-04T00:00:00.0000000+02:00 Discharge m^3/s 107.9000015
1977-02-04T00:00:00.0000000+02:00 Stage m 2.400000095
1977-04-12T00:00:00.0000000+02:00 Discharge m^3/s 125.4000015
1977-04-12T00:00:00.0000000+02:00 Stage m 2.839999914
1977-11-09T00:00:00.0000000+02:00 Discharge m^3/s 79.5
1977-11-09T00:00:00.0000000+02:00 Stage m 1.879999995
1977-12-12T00:00:00.0000000+02:00 Discharge m^3/s 121.8000031
1977-12-12T00:00:00.0000000+02:00 Stage m 3.680000067
1978-03-13T00:00:00.0000000+02:00 Discharge m^3/s 52.59999847
1978-03-13T00:00:00.0000000+02:00 Stage m 1.110000014
1978-03-13T00:00:00.0000000+02:00 Discharge m^3/s 157
1978-03-13T00:00:00.0000000+02:00 Stage m 3.549999952
1985-05-15T00:00:00.0000000+02:00 Discharge m^3/s 99.19999695
1985-05-15T00:00:00.0000000+02:00 Stage m 2.5
1985-06-13T00:00:00.0000000+02:00 Discharge m^3/s 59.43000031
1985-06-13T00:00:00.0000000+02:00 Stage m 1.409999967
1988-04-20T00:00:00.0000000+02:00 Discharge m^3/s 233
1988-04-20T00:00:00.0000000+02:00 Stage m 4.170000076
1988-04-25T00:00:00.0000000+02:00 Discharge m^3/s 228.3999939
1988-04-25T00:00:00.0000000+02:00 Stage m 4.090000153
1988-04-29T00:00:00.0000000+02:00 Discharge m^3/s 216
1988-04-29T00:00:00.0000000+02:00 Stage m 4.170000076
1988-05-16T00:00:00.0000000+02:00 Discharge m^3/s 154
1988-05-16T00:00:00.0000000+02:00 Stage m 3.49000001
1988-05-26T00:00:00.0000000+02:00 Discharge m^3/s 117.1999969
1988-05-26T00:00:00.0000000+02:00 Stage m 2.460000038
1988-06-02T00:00:00.0000000+02:00 Discharge m^3/s 115.5999985
1988-06-02T00:00:00.0000000+02:00 Stage m 2.049999952
1988-06-10T00:00:00.0000000+02:00 Discharge m^3/s 157.6000061
1988-06-10T00:00:00.0000000+02:00 Stage m 3.420000076
2012-02-23T00:00:00.0000000+02:00 Discharge m^3/s 70.92
2012-02-23T00:00:00.0000000+02:00 Stage m 2
2012-11-12T00:00:00.0000000+02:00 Discharge m^3/s 108.62
2012-11-12T00:00:00.0000000+02:00 Stage m 3
2014-02-25T00:00:00.0000000+02:00 Discharge m^3/s 67.4
2014-02-25T00:00:00.0000000+02:00 Stage m 2
2017-04-24T00:00:00.0000000+02:00 Discharge m^3/s 89.77
2017-04-24T00:00:00.0000000+02:00 Stage m 3
2017-09-07T00:00:00.0000000+02:00 Discharge m^3/s 51.55
2017-09-07T00:00:00.0000000+02:00 Stage m 1
2017-09-29T00:00:00.0000000+02:00 Discharge m^3/s 41.35
2017-09-29T00:00:00.0000000+02:00 Stage m 1
2017-11-24T00:00:00.0000000+02:00 Discharge m^3/s 62.032
2017-11-24T00:00:00.0000000+02:00 Stage m 1.85
2018-05-03T00:00:00.0000000+02:00 Discharge m^3/s 300.335
2018-05-03T00:00:00.0000000+02:00 Stage m 4.75
2018-05-03T18:00:00.0000000+02:00 Discharge m^3/s 300.335
2018-05-03T18:00:00.0000000+02:00 Stage m 4.75
2018-09-14T07:34:00.0000000+02:00 Discharge m^3/s 52.56
2018-09-14T07:34:00.0000000+02:00 Stage m 1.68
2019-01-10T01:26:00.0000000+02:00 Discharge m^3/s 46.5
2019-01-10T01:26:00.0000000+02:00 Stage m 1.54
2019-06-17T16:45:00.0000000+02:00 Discharge m^3/s 47.86
2020-11-12T14:22:00.0000000+02:00 Discharge m^3/s 212.623
2020-11-12T14:22:00.0000000+02:00 Stage m 2.79